Lapse_Rate
4.7 4.6 5.5 6.2 5.2 4.9 4.3 3.9 4.6 4.8 4.9 4.9 5.0 5.0 5.3 4.8 4.0 1.6 0.0 -0.9 0.0 1.1 0.6 -0.3 1.3 2.0 2.9 3.6 6.5 4.4 5.7 5.4 5.9 6.5 6.5 6.5 6.5 6.5 6.5 6.5 6.5 6.5 6.5 6.5 6.5 6.5 6.5 5.1 6.4 6.5 5.8 4.3 4.5 4.0
4.5 4.4 4.7 5.4 5.8 5.7 5.2 4.2 3.8 4.2 4.9 4.7 4.9 5.1 5.0 4.8 3.8 2.8 1.3 -0.3 -0.5 1.7 1.9 -0.4 0.4 1.2 2.7 3.1 2.1 2.0 4.8 4.6 4.1 6.5 6.5 6.5 6.5 6.5 6.5 6.5 6.5 6.5 6.5 6.5 6.5 6.5 5.6 3.3 4.5 3.0 2.2 3.2 3.8 3.8
4.1 4.5 4.4 5.3 5.5 6.0 5.8 4.9 4.3 3.9 4.2 4.9 4.9 5.1 5.0 4.4 3.9 2.4 0.1 -0.9 0.2 1.1 0.9 1.4 1.4 1.4 -0.3 0.5 0.7 4.2 2.7 2.9 2.9 2.3 4.4 6.4 6.5 6.5 6.5 6.5 6.5 6.5 5.4 6.5 6.5 6.5 6.0 2.8 1.8 2.0 1.7 2.4 3.1 2.9
3.6 4.4 4.2 4.8 5.4 5.9 6.2 5.5 3.9 4.3 4.1 4.6 5.4 4.9 4.8 4.6 3.5 2.3 0.6 -1.3 0.5 1.5 4.5 2.7 0.6 2.1 0.7 0.3 1.4 2.0 2.7 2.0 1.9 2.3 4.3 6.5 6.5 5.0 6.5 6.5 6.5 5.9 6.0 6.5 6.5 6.2 4.0 2.2 1.3 1.6 1.3 2.0 2.4 2.1
3.3 3.8 4.3 4.5 5.2 5.9 6.0 5.8 4.8 3.8 4.1 4.1 4.7 5.2 4.8 4.7 4.2 2.5 0.4 -0.6 -0.5 2.9 4.3 2.3 1.1 1.9 1.2 1.3 2.5 2.9 2.8 3.2 2.9 4.1 6.1 6.5 4.7 5.9 5.9 6.4 6.5 5.2 6.5 6.5 6.5 4.6 5.0 3.9 2.2 0.6 1.5 1.0 1.0 1.1
3.5 3.3 3.5 4.4 5.0 5.2 5.5 5.8 4.6 4.3 4.0 4.1 4.0 5.0 5.2 4.9 4.4 2.5 2.9 0.7 0.8 0.3 0.9 6.4 2.2 3.7 3.5 3.5 3.5 3.6 3.1 3.1 2.8 3.6 4.2 3.1 3.2 4.5 6.5 6.5 5.4 2.1 1.7 2.4 4.7 3.5 2.6 2.4 1.4 1.0 1.7 1.7 1.3 1.5
3.7 3.6 3.5 3.9 4.6 5.3 5.2 5.6 5.5 4.4 4.0 4.3 4.5 4.6 5.3 5.2 2.6 3.6 3.4 3.0 1.7 0.4 2.1 4.1 4.0 3.8 4.6 4.5 2.9 2.7 2.7 2.8 3.2 3.0 4.6 4.5 4.2 4.2 6.5 6.5 5.2 2.0 1.2 1.1 1.0 3.4 4.6 2.2 3.0 0.8 1.8 1.5 2.1 1.4
3.4 3.6 3.9 3.8 4.3 4.9 5.3 5.3 5.8 5.5 4.4 4.2 4.7 5.2 5.2 5.0 3.7 2.8 1.0 2.6 1.4 0.9 0.9 6.5 6.5 4.1 4.2 3.9 4.4 2.0 3.3 2.8 3.1 3.8 4.1 5.5 4.8 5.1 6.5 6.0 3.2 2.4 2.0 1.6 1.7 0.9 3.6 1.7 0.7 0.5 0.3 0.1 0.9 1.2
3.7 3.7 3.8 3.9 4.1 4.6 5.2 5.3 5.8 5.7 5.0 4.6 5.1 5.4 3.8 2.9 2.8 2.2 2.8 2.5 1.2 1.6 1.1 3.4 6.5 6.5 3.4 3.5 3.3 3.5 3.0 6.3 3.8 6.3 5.9 5.6 6.5 6.5 6.5 5.0 3.1 2.4 4.0 4.3 2.3 0.9 2.1 2.8 1.4 0.5 0.5 0.6 1.3 0.7
4.2 4.0 4.3 3.9 3.9 4.3 5.0 5.5 5.5 5.5 5.5 5.3 4.5 4.0 3.8 2.6 3.2 3.5 2.2 3.2 1.6 1.3 0.6 4.8 1.5 6.5 3.2 4.3 5.5 4.8 4.4 6.5 6.5 6.3 4.7 6.5 6.5 5.2 3.3 1.7 1.7 1.8 1.9 2.3 3.9 2.7 2.4 2.6 0.7 -0.3 -0.7 -0.3 0.6 0.8
5.6 5.6 4.9 4.3 3.9 4.1 4.7 5.3 5.5 5.4 6.2 6.0 4.0 3.2 2.1 2.5 3.0 2.6 2.9 4.4 3.6 5.3 3.0 3.1 2.1 5.6 2.7 6.3 6.6 4.6 6.4 6.5 6.5 6.5 6.5 6.5 6.5 6.0 1.0 0.1 0.4 0.7 0.3 0.6 2.1 3.3 1.3 0.8 -0.5 -0.5 -0.3 0.2 0.9 1.2
5.5 5.4 5.0 4.7 4.2 4.1 4.6 4.9 5.4 5.3 5.1 5.4 3.5 2.0 1.7 2.4 2.3 5.8 6.5 5.5 6.4 6.5 3.8 4.3 3.9 3.5 3.1 2.1 4.7 5.4 6.5 6.5 6.5 5.4 6.5 6.5 6.5 1.6 1.3 1.2 1.1 0.5 -0.1 -0.3 0.5 2.3 2.2 0.4 -0.1 -0.6 -0.2 0.1 0.6 0.9
4.9 5.0 4.8 5.0 4.7 4.4 4.7 4.6 5.5 5.4 5.9 4.8 3.4 3.3 3.5 3.6 6.5 6.5 6.5 6.5 6.5 4.1 3.0 3.8 5.8 3.3 3.1 3.4 5.1 6.4 6.5 6.5 5.4 6.5 6.5 6.5 3.5 0.9 0.4 0.0 -0.0 0.4 0.3 0.6 1.6 2.9 2.3 1.4 0.2 -0.4 -0.1 -0.1 -0.3 -0.4
5.5 5.4 5.1 5.2 5.0 4.9 4.9 4.6 5.3 5.4 5.3 5.1 5.3 6.5 6.5 6.5 6.5 6.5 6.5 6.4 3.3 2.4 3.3 2.2 3.4 4.4 4.4 5.5 6.3 6.5 6.5 6.4 6.5 6.5 6.5 6.5 0.7 1.0 0.0 -0.6 -0.4 1.6 0.9 -1.4 -1.1 0.8 -0.0 -1.6 -2.2 -2.2 -0.5 -0.6 -0.6 -0.3
5.6 5.5 6.1 5.4 5.2 4.8 5.1 4.5 4.7 5.0 4.3 5.3 4.6 6.5 6.5 4.6 1.6 1.6 0.1 2.3 1.8 2.4 3.2 3.4 3.8 4.1 6.5 6.5 6.5 6.5 6.5 6.5 6.5 6.5 6.5 -0.5 0.1 0.1 -0.2 -0.9 -1.2 -0.5 -0.2 -0.3 -0.7 -2.3 -3.4 -2.8 -2.3 -2.5 -1.5 -0.9 -0.3 -0.1
5.9 6.0 6.1 6.3 5.9 5.1 5.0 4.5 4.5 4.5 3.7 4.7 4.5 5.5 4.9 4.4 4.4 2.4 2.3 2.6 1.7 3.5 0.4 1.8 6.5 6.5 6.5 6.5 6.5 6.5 6.5 6.5 6.5 6.5 -0.7 -2.5 0.4 -0.2 -0.9 -1.4 -1.7 -1.4 -0.9 -0.4 -0.6 -0.7 -0.7 -1.4 -1.4 -1.4 -1.7 -1.5 -1.1 -0.8
6.9 6.3 6.6 7.2 6.4 5.4 4.6 4.0 4.3 4.0 4.8 5.8 6.2 3.7 2.9 2.8 4.0 4.0 3.0 2.9 2.6 3.5 6.5 6.0 6.5 6.5 6.4 6.5 6.5 6.5 6.5 6.5 1.2 -1.8 -5.0 -2.8 0.3 0.1 -1.2 -1.8 -1.9 -1.9 -1.8 -1.7 -1.3 -1.3 -1.7 -1.0 -2.5 -2.8 -1.7 -1.9 -2.1 -1.8
6.6 6.3 7.1 6.7 5.9 5.0 3.6 2.3 3.8 4.6 6.2 5.7 6.3 5.5 4.1 3.5 3.1 3.5 3.3 1.8 3.8 3.5 3.9 5.9 3.1 6.5 6.5 6.5 6.5 6.4 2.3 -2.8 -4.4 -3.1 -3.7 -2.1 -1.5 -1.3 -1.7 -1.2 -1.7 -2.6 -2.6 -4.0 -4.0 -4.0 -4.0 -3.3 -2.2 -0.8 -1.3 -2.1 -2.8 -3.5
6.0 6.5 6.7 6.6 5.6 2.1 3.7 3.5 3.6 6.4 6.1 5.7 5.5 1.5 2.6 3.6 3.3 2.2 1.8 2.6 1.9 2.4 1.0 0.7 6.5 6.5 6.5 6.1 5.9 2.1 -3.6 -4.0 -0.6 -1.0 -2.4 -2.1 -1.9 -1.5 -2.0 -2.8 -3.2 -3.6 -3.8 -4.8 -4.5 -3.1 -1.9 -1.5 -0.6 -0.9 -1.2 -1.4 -0.4 -1.6
6.9 7.0 7.0 6.6 4.1 3.2 4.4 4.9 3.3 5.4 6.5 5.8 4.9 3.6 1.7 1.9 2.0 2.4 2.4 2.8 3.5 4.4 5.4 6.4 6.5 4.6 3.9 1.5 -0.2 0.4 -1.0 -2.1 -1.5 0.2 0.1 -1.1 -1.8 -2.5 -2.4 -1.4 -1.1 -2.3 -3.4 -5.1 -5.3 -2.0 -3.5 -2.8 -2.1 -1.6 -1.1 -0.5 -0.7 -1.2
7.1 6.0 6.8 6.0 2.7 2.8 4.2 5.1 5.0 5.0 3.9 5.6 4.4 4.7 4.1 1.6 3.1 5.1 4.9 4.7 6.2 5.8 6.5 2.9 2.1 4.2 2.0 1.1 0.2 0.0 0.6 -0.5 -0.0 1.2 2.5 0.6 0.2 -2.3 -2.2 -2.6 -2.7 -2.9 -2.4 -1.7 -1.5 -1.3 -0.1 -1.5 -1.0 -1.6 -0.5 -0.1 -0.7 -2.0
5.3 6.3 4.0 3.4 3.4 4.2 4.6 4.0 5.2 4.6 5.0 5.8 5.5 5.1 5.7 6.2 4.6 5.2 5.3 6.0 6.0 6.3 3.8 4.9 5.5 5.4 5.2 3.8 2.5 -0.6 1.8 0.3 0.4 -0.0 2.3 1.8 1.5 -0.7 -0.8 -0.8 -1.8 -0.6 -0.1 0.5 0.6 0.6 0.1 -0.5 -2.3 -1.6 -0.2 -0.5 -0.3 -2.2
5.0 4.4 3.4 3.7 5.2 5.7 6.0 4.1 5.7 5.3 6.5 6.5 5.6 6.5 6.5 6.0 3.3 4.9 6.4 4.6 4.8 2.4 6.0 5.8 5.4 4.2 4.3 3.8 -0.1 -1.5 0.8 2.2 2.9 1.4 1.7 2.1 1.5 1.7 0.8 0.4 -0.2 0.8 1.1 0.6 -0.1 0.6 0.2 -0.4 0.3 -0.9 -0.5 -0.4 -1.4 -2.0
4.7 4.4 4.7 5.7 6.0 6.5 5.7 6.3 5.7 6.0 6.2 6.5 6.5 6.5 6.5 6.1 5.6 6.3 6.5 5.0 4.5 -0.1 3.5 4.7 4.6 4.5 5.0 5.0 4.9 3.8 4.8 3.4 2.3 3.0 2.9 2.3 2.6 1.8 0.3 0.8 0.1 -0.6 0.6 -0.5 -0.9 -0.5 -1.4 -0.4 0.5 -0.2 -0.5 -1.0 -1.5 -1.4
5.7 6.0 6.4 6.5 6.0 6.1 6.5 6.5 6.5 6.5 6.5 6.5 6.5 6.5 6.5 5.9 6.5 6.5 6.5 4.8 1.4 1.8 2.7 3.1 3.9 4.2 6.0 6.0 6.0 5.1 2.4 2.7 3.1 2.4 1.5 0.7 1.5 -0.6 -2.0 -2.7 -2.4 -2.2 -3.0 -2.2 -2.7 -2.2 -1.9 -1.7 -0.3 -1.3 -1.0 -1.1 -1.8 -2.2
6.5 5.9 6.4 6.5 6.4 6.5 6.5 6.5 6.5 6.5 6.5 6.5 6.5 5.0 4.5 6.5 6.5 6.5 6.5 0.6 4.4 3.6 2.4 2.5 3.7 4.8 5.4 4.3 4.0 4.2 2.7 -0.9 1.7 2.5 1.8 -0.6 -0.5 0.5 0.2 -0.4 -1.4 -3.4 -4.4 -1.7 -1.7 -1.8 -2.0 -1.2 -2.1 -2.1 -1.3 -0.3 1.0 -1.6
6.5 6.5 4.9 3.8 4.2 4.5 5.8 4.7 4.9 6.5 6.5 6.5 6.5 6.5 6.5 6.5 6.5 6.5 -1.6 -2.8 2.8 3.1 2.3 2.3 1.9 2.1 2.6 1.7 1.0 1.5 -3.9 -0.7 0.3 -0.4 -4.2 -3.6 -2.7 -1.5 -0.6 -1.2 -1.8 -2.1 -4.3 -2.9 -2.1 -2.4 -2.1 -1.6 -1.7 -1.5 -1.3 -0.9 -0.1 -1.8
4.6 4.4 6.5 6.3 5.8 2.3 6.5 6.5 6.5 6.5 6.5 4.6 6.4 6.5 6.5 6.5 6.5 -0.3 -2.6 -4.7 -5.1 -4.0 -2.0 -1.7 -0.0 1.5 1.4 -1.0 -4.1 -3.6 -5.8 -7.1 -8.5 -7.6 -6.5 -6.2 -7.2 -6.0 -4.9 -6.1 -6.4 -1.1 -5.2 -3.4 -2.6 -2.9 -1.8 -1.2 -1.1 -1.3 -1.6 -1.1 -1.4 -2.4
6.5 5.6 5.4 6.5 6.0 5.5 6.5 6.4 6.5 4.3 3.0 5.4 6.5 6.5 6.3 0.6 -2.7 -2.5 -2.6 -5.3 -8.1 -8.0 -5.8 -4.6 -6.4 -9.3 -9.2 -9.4 -7.8 -5.9 -6.1 -4.3 -2.9 -2.3 -1.5 -0.6 -3.7 -3.2 -6.9 -7.0 -7.1 -6.3 -5.6 -4.0 0.2 -1.3 -2.6 -1.2 -1.1 -1.0 -1.5 -1.4 -2.1 -1.8
6.6 6.5 5.9 5.9 6.5 6.5 4.8 2.5 0.2 -3.0 -0.8 1.0 1.5 -0.1 -0.9 -3.1 -3.8 -5.2 -5.0 -6.9 -7.0 -4.4 -4.2 -5.7 -6.2 -4.4 -3.5 -2.8 -3.7 -7.1 -8.1 -4.8 -1.8 0.3 0.9 0.8 -1.1 -7.0 -8.7 -7.6 -6.7 -6.3 -5.7 -4.5 -3.3 -2.1 2.1 1.3 1.7 -1.8 -2.5 -3.1 -1.9 -1.2
4.0 4.9 3.3 4.9 6.5 0.2 -2.5 -4.7 -3.5 2.0 -1.5 -1.5 -2.0 2.3 5.4 -0.6 -3.2 -5.0 -4.5 -4.5 -3.6 -8.4 -6.5 -5.8 -6.5 -4.5 -3.7 -3.2 -3.2 -3.0 -2.3 -4.4 -4.8 -3.5 -6.5 -6.5 -6.9 -6.8 -6.3 -5.7 -5.3 -4.6 -4.0 -3.1 -1.5 -0.0 -0.0 -2.7 -3.0 -2.6 -2.7 -1.9 -1.6 -1.4
5.2 6.3 6.5 6.5 6.4 -2.7 -5.1 -1.5 -0.1 2.2 -0.2 0.5 0.6 -4.1 -1.3 0.2 2.0 0.8 -3.6 -6.1 -5.5 -4.2 -1.7 -1.3 -2.0 -0.7 -3.0 -1.0 -2.2 -2.4 -0.6 -3.4 -4.0 -4.0 -3.8 -5.6 -5.7 -6.0 -5.8 -5.1 -4.2 -3.4 -3.0 -1.8 -0.7 -1.1 -2.7 -2.7 -2.5 -2.3 -2.1 -2.1 -1.8 -2.4
5.5 3.2 -0.0 2.7 4.9 5.8 1.9 1.8 3.9 5.7 4.8 5.7 2.6 -0.5 0.6 4.1 6.2 3.7 -5.8 -3.0 2.1 2.4 0.8 -0.4 0.1 0.6 -3.2 -2.3 -2.0 -2.7 -2.4 -5.5 -4.8 -2.6 -1.8 -2.0 -2.3 -4.5 -5.3 -4.4 -3.4 -2.5 -2.0 -1.2 -2.3 -2.9 -3.1 -3.2 -3.5 -3.5 -2.6 -2.1 -2.3 -2.3
Wind_Speed
14 12 14 13 9 5 3 3 6 10 12 14 14 10 12 16 13 4 2 3 2 2 3 7 7 5 2 2 3 2 2 2 2 3 2 2 3 3 2 4 3 3 3 4 2 2 7 6 3 6 5 1 3 4
16 14 13 13 10 8 6 4 4 7 12 12 14 12 9 11 12 1 0 1 2 1 2 3 5 3 3 2 4 1 2 2 4 3 1 2 3 1 3 4 1 3 6 4 8 6 4 7 6 4 3 4 4 4
17 16 15 13 13 10 8 6 6 5 8 12 11 9 8 9 9 2 1 1 2 2 3 2 6 1 3 2 1 2 2 2 2 2 3 2 5 4 4 5 3 4 3 4 1 4 8 10 6 5 6 6 4 3
17 18 17 15 15 13 11 9 6 6 7 10 12 9 6 7 8 3 1 1 2 1 1 4 1 3 1 4 3 2 1 3 3 2 1 2 2 3 3 3 4 4 6 4 7 9 7 10 9 6 7 6 5 3
16 18 18 17 17 15 14 11 8 6 6 7 11 11 8 6 3 2 1 0 1 3 3 4 2 1 2 5 4 2 2 2 1 1 2 4 2 2 2 1 4 6 7 5 6 6 3 6 5 6 9 9 9 7
20 17 18 19 19 17 16 13 11 8 6 7 7 11 12 11 6 2 3 1 2 1 2 3 1 2 2 3 3 2 1 1 2 3 3 3 2 2 2 4 8 7 4 5 4 1 4 5 5 1 4 5 5 6
20 20 19 20 20 19 17 15 13 10 7 6 7 6 8 9 1 2 3 3 2 1 2 4 3 1 2 3 1 2 1 2 2 2 2 1 2 3 3 5 6 8 8 7 7 3 5 5 4 5 4 6 7 4
20 22 21 21 21 20 19 17 14 11 8 6 6 6 4 3 2 3 2 3 5 3 2 2 4 2 4 3 2 1 2 1 2 2 1 2 0 0 5 10 5 6 7 7 7 9 3 1 4 5 3 5 5 5
20 22 22 22 23 22 20 19 16 12 9 5 3 0 3 1 2 3 2 3 3 3 2 3 3 4 2 1 2 1 1 1 1 3 3 3 3 6 9 7 7 7 5 4 0 5 6 6 6 6 6 6 7 7
23 23 24 23 24 23 22 21 18 15 10 6 3 2 3 3 2 2 3 2 3 2 1 3 1 2 3 0 1 3 0 2 2 3 3 3 5 12 12 10 7 6 7 5 4 4 5 5 8 8 10 7 6 6
24 22 22 24 24 25 24 22 21 16 10 1 3 3 1 3 1 2 1 2 0 3 3 2 4 3 2 3 3 2 3 1 1 4 3 3 4 5 5 4 4 6 7 9 9 5 7 6 8 8 6 7 7 7
21 22 22 22 24 26 27 27 26 9 4 4 4 3 2 2 2 2 3 1 4 5 1 3 3 3 1 1 2 2 2 2 5 1 0 4 5 6 3 5 6 6 6 8 8 8 7 7 6 7 6 7 6 6
18 21 22 21 23 28 30 30 31 12 14 3 3 3 3 1 1 7 8 4 3 5 4 3 1 1 1 1 2 2 2 5 2 1 4 5 4 4 5 4 6 4 3 3 5 2 1 1 2 4 5 4 8 7
18 19 21 21 23 27 32 32 30 18 4 3 5 6 7 5 7 7 4 4 4 4 6 4 3 3 1 2 2 2 2 2 2 3 6 3 5 3 3 2 2 2 3 3 3 4 5 4 4 5 7 6 7 6
20 20 20 21 22 26 33 33 34 6 3 4 5 7 9 4 2 1 1 1 2 5 6 4 3 2 2 2 1 2 3 4 6 5 3 3 4 2 2 1 4 5 4 4 3 3 4 6 5 4 5 7 7 6
19 17 9 19 18 25 33 32 9 2 3 3 4 2 1 2 3 2 2 2 3 5 2 3 4 3 4 5 4 8 4 6 4 4 3 2 2 2 3 3 4 4 4 5 5 5 6 7 7 6 6 6 6 7
18 4 8 15 20 26 35 5 2 6 6 5 5 3 3 1 3 3 5 4 5 3 3 3 6 8 3 1 4 6 6 4 4 4 3 4 4 3 4 3 3 4 5 6 5 6 5 5 5 5 7 7 6 6
6 5 14 19 15 6 3 2 4 6 8 6 4 5 3 3 4 2 3 4 5 3 4 5 4 3 6 6 4 4 5 3 4 4 3 4 4 4 4 5 5 6 7 6 6 4 4 6 8 8 6 6 5 3
8 6 13 15 8 5 4 4 3 5 8 2 3 2 2 2 2 4 5 7 1 0 5 2 4 5 5 4 4 4 3 4 3 4 4 6 7 7 6 5 4 5 5 5 6 7 7 11 9 6 6 7 6 5
24 23 19 12 9 3 5 3 2 3 4 3 2 4 3 3 4 4 7 8 4 2 4 4 6 4 4 3 5 3 3 4 3 3 4 4 5 5 7 6 6 5 4 3 4 9 4 4 5 6 6 8 7 7
11 6 12 7 1 2 2 3 4 3 3 3 4 6 3 1 1 4 5 6 4 4 5 6 5 9 5 4 4 5 5 6 6 6 5 4 4 5 4 5 5 4 4 5 6 7 12 9 7 7 7 7 7 5
4 9 3 2 3 5 3 3 2 3 3 1 5 4 3 4 4 4 5 4 5 12 6 6 10 11 10 14 12 9 10 8 10 5 7 5 5 4 5 5 3 6 7 8 7 8 8 7 5 7 8 7 8 5
7 3 3 3 5 6 4 4 4 5 4 5 4 5 3 3 3 7 5 5 7 4 9 12 13 11 15 18 3 4 11 12 10 9 9 8 7 8 5 6 6 7 7 7 5 7 6 9 11 8 7 7 7 5
7 4 7 7 7 6 3 4 1 3 3 3 5 4 3 4 4 3 5 6 6 2 6 12 10 12 13 15 14 16 13 8 9 8 9 6 8 9 7 8 6 7 8 3 5 5 5 7 11 8 8 9 8 8
4 7 6 5 4 3 5 5 4 3 5 4 4 4 3 3 5 5 5 3 4 6 8 10 13 15 15 13 10 9 9 9 9 10 9 8 8 4 3 4 5 6 4 5 5 6 6 5 7 8 9 10 11 10
8 9 9 9 5 6 7 7 8 7 3 4 7 1 2 4 4 8 4 5 11 9 11 13 13 11 11 12 12 10 10 6 6 8 8 7 8 8 7 6 5 4 7 7 5 7 7 8 9 12 10 13 18 11
6 8 4 2 4 4 2 2 2 4 7 8 4 5 4 5 7 6 3 5 10 9 9 9 9 11 12 9 8 8 3 7 7 5 2 4 6 7 7 6 6 4 5 8 7 8 10 11 11 11 9 7 9 9
4 5 8 7 3 1 5 3 5 8 5 4 7 7 9 10 8 4 6 3 2 0 2 3 6 8 7 5 4 4 2 3 3 1 1 2 4 4 5 2 3 8 5 6 7 6 9 10 10 11 11 10 7 7
4 4 5 5 3 4 7 9 7 5 3 6 7 5 6 4 3 3 3 1 1 2 1 3 3 2 3 3 2 3 5 8 8 6 7 6 3 4 6 5 4 3 4 4 13 10 9 9 9 10 10 8 7 7
7 6 5 5 7 9 6 7 3 3 3 4 3 3 3 3 4 1 2 2 2 5 4 3 3 6 6 6 4 3 4 6 7 6 6 7 5 2 4 5 5 4 5 5 5 4 14 10 13 7 8 7 6 6
7 6 3 5 6 4 3 2 2 1 0 3 2 4 13 4 4 3 5 4 4 3 3 2 4 5 6 6 6 5 6 8 12 12 3 3 4 4 5 5 6 6 6 7 8 8 10 9 8 10 10 11 11 10
4 10 6 5 4 3 1 3 2 2 2 2 4 1 3 1 5 4 4 5 4 5 13 9 5 7 10 8 7 6 5 4 7 9 12 6 5 5 6 6 7 7 8 9 8 9 11 11 9 10 10 12 11 10
3 3 1 2 0 1 2 3 2 4 3 4 5 5 5 8 17 6 2 7 11 12 10 11 12 9 7 12 11 7 6 4 8 13 16 18 17 14 8 7 7 9 11 10 9 11 12 13 10 11 11 12 11 10
Wind_Direction
272 259 272 272 268 234 229 308 325 328 329 327 325 340 356 3 16 91 267 26 28 163 230 185 181 156 142 188 172 250 46 328 52 75 144 217 200 248 304 240 216 210 159 215 124 234 289 164 100 174 216 225 199 203
267 255 255 272 263 249 232 256 297 320 322 326 327 327 358 15 13 62 13 70 64 139 265 236 234 246 227 206 153 165 200 173 195 102 203 122 245 233 191 275 197 255 193 193 186 217 227 207 206 214 168 185 212 201
264 250 248 253 250 246 236 237 276 300 320 318 322 330 353 10 15 65 189 321 63 65 314 344 240 260 85 190 79 157 282 182 186 182 160 176 239 138 208 237 239 249 169 226 10 250 232 230 230 217 191 215 220 226
263 251 243 242 248 240 231 223 236 283 305 313 310 316 340 4 20 46 81 185 98 98 188 283 13 265 138 139 136 136 160 53 87 80 146 179 218 164 235 264 214 212 147 212 261 279 277 264 239 215 205 200 175 159
256 251 243 239 241 240 225 218 227 236 273 297 305 309 312 327 341 42 111 229 207 140 227 276 308 245 144 146 168 147 137 122 137 119 152 226 219 157 212 299 238 185 199 182 227 239 213 265 306 200 190 194 190 164
263 248 239 236 238 237 221 219 215 228 243 275 293 304 310 310 309 45 348 354 351 173 77 306 284 158 131 149 158 195 202 163 161 182 227 256 298 165 246 246 248 211 223 204 247 306 226 288 298 239 213 197 171 176
265 260 241 230 232 236 219 212 213 218 221 254 280 293 310 336 102 173 198 202 155 93 61 312 305 271 133 109 88 134 117 230 188 242 231 241 264 186 245 244 232 216 224 235 221 183 265 207 240 182 173 169 164 143
262 260 249 230 226 227 217 205 210 213 214 225 262 281 278 309 348 298 240 149 126 96 82 240 271 328 175 165 189 155 150 87 230 258 273 204 357 193 258 243 259 258 276 267 243 214 234 19 129 160 121 128 138 154
267 263 251 235 221 218 214 199 194 206 203 209 252 196 37 110 225 239 126 81 90 140 217 156 184 245 134 133 114 76 123 219 170 222 237 148 207 224 234 235 234 226 218 250 230 195 185 196 197 166 153 166 171 191
271 263 257 241 220 210 207 195 183 186 189 160 99 91 270 227 220 138 36 24 9 273 313 221 70 226 123 143 179 113 79 226 250 239 124 212 258 260 261 238 235 247 253 200 176 237 213 213 191 188 199 194 191 176
272 262 253 248 224 207 196 187 177 167 153 134 157 217 227 330 16 41 225 142 331 281 199 227 184 155 218 120 195 216 181 145 300 249 179 252 265 244 248 233 212 251 243 225 228 261 208 198 190 192 193 188 174 167
269 264 256 244 230 206 190 180 176 176 174 176 148 91 51 62 31 127 214 316 182 232 233 164 204 159 173 339 93 251 160 93 235 115 175 261 252 249 240 252 279 277 268 250 212 222 235 229 212 184 166 161 162 161
275 265 262 251 234 209 188 181 178 158 125 66 65 98 114 235 331 205 202 216 206 190 178 154 78 70 75 94 59 99 145 224 87 102 234 234 256 275 262 269 288 256 290 226 167 176 224 243 128 143 142 150 167 165
280 274 265 254 237 213 190 179 171 155 105 174 165 213 191 207 236 203 205 175 176 129 148 130 109 119 348 72 156 130 250 45 336 256 235 246 238 225 218 258 242 271 206 184 163 172 176 143 163 165 167 147 138 156
282 279 270 261 249 217 191 173 165 152 141 198 179 218 209 218 266 239 38 95 193 148 133 104 63 113 133 109 217 52 4 256 220 235 242 238 225 210 256 240 234 235 214 209 172 162 180 176 174 139 149 153 154 155
278 283 261 254 252 221 186 164 153 112 178 211 240 268 185 93 246 188 169 255 180 153 93 77 122 107 227 148 139 210 173 231 252 225 242 276 222 231 248 243 236 225 215 219 199 193 181 175 175 168 153 168 172 165
268 239 220 238 228 211 170 125 107 171 198 208 232 218 180 166 213 182 151 188 164 149 177 132 153 200 117 113 229 186 209 222 235 259 219 219 209 217 219 229 225 208 214 223 219 204 197 160 134 144 181 198 190 184
249 255 235 236 206 152 18 83 168 192 211 217 202 197 210 195 155 163 163 150 152 198 145 200 126 157 193 198 222 228 233 253 228 235 228 226 232 236 223 236 217 201 211 211 206 192 160 167 184 207 198 169 161 168
241 229 244 237 179 117 161 196 197 211 214 184 173 149 181 195 193 129 147 173 93 107 115 88 179 196 218 205 201 204 225 213 231 230 224 221 220 227 224 217 238 230 212 198 192 207 202 205 210 194 182 168 192 188
252 247 245 222 145 149 167 210 195 230 199 201 148 166 188 206 157 166 157 164 159 168 206 220 216 211 202 208 199 215 198 181 173 228 259 239 223 206 220 212 222 208 202 204 219 214 203 211 209 188 181 184 183 198
255 218 222 184 114 127 265 179 191 224 163 192 147 154 197 91 161 179 177 153 174 214 233 214 223 243 226 229 203 195 210 174 199 201 214 244 226 208 235 229 220 199 198 202 211 221 218 226 212 187 185 194 199 180
219 155 90 134 154 194 245 215 235 157 158 144 148 164 172 178 190 190 141 200 228 228 207 210 227 236 246 247 243 216 232 206 227 230 242 255 253 255 240 226 177 224 221 226 214 218 220 215 172 179 188 190 174 155
111 109 141 180 185 193 226 164 196 176 163 186 152 184 209 216 221 138 200 216 241 195 221 225 230 231 241 251 259 229 208 219 240 232 236 239 235 243 243 236 207 217 233 238 201 216 217 186 196 186 179 162 148 156
119 175 193 199 191 197 167 192 187 141 138 183 177 206 211 197 154 214 239 236 234 183 214 218 212 235 245 246 243 244 242 221 238 249 241 230 243 247 228 243 224 221 223 215 180 194 184 190 189 176 168 161 167 173
205 211 214 169 142 163 184 157 168 198 205 169 197 222 199 176 191 225 241 252 207 218 217 214 219 223 233 244 248 243 215 209 216 231 243 201 232 263 251 224 230 221 165 175 186 189 194 174 168 163 168 173 175 175
213 210 194 176 155 180 186 169 189 189 140 174 220 180 140 172 201 241 229 214 225 219 217 217 220 227 234 230 238 236 233 177 187 221 243 194 204 214 233 233 248 262 199 201 177 185 176 177 170 171 182 190 185 166
213 212 210 170 141 118 113 19 107 142 176 203 173 157 167 210 231 245 247 229 233 222 219 217 203 211 225 229 226 233 138 161 182 215 171 182 198 204 201 205 220 230 161 183 180 175 178 178 180 184 177 171 181 174
206 190 191 175 157 124 145 174 184 200 211 180 146 183 189 202 225 224 213 249 224 183 194 196 204 211 207 208 166 132 106 99 91 68 317 259 220 220 217 186 168 154 153 172 179 163 174 179 179 173 167 170 162 158
205 174 138 158 129 179 205 194 208 218 172 164 179 202 228 223 233 233 252 209 73 108 164 230 231 101 69 45 71 141 146 159 156 175 221 243 292 256 204 187 172 165 149 155 190 181 170 162 160 162 158 152 145 139
206 172 164 165 182 214 222 188 220 227 193 184 212 308 291 267 242 213 166 152 171 217 222 176 161 175 181 179 188 235 227 201 201 188 203 224 223 183 156 157 159 153 143 140 136 142 171 154 143 124 123 124 137 137
147 164 133 176 224 235 217 266 298 187 244 233 237 226 250 284 297 238 212 215 207 157 151 198 204 208 172 184 192 191 232 216 222 228 176 138 141 151 155 150 142 140 141 143 149 156 150 138 144 143 140 146 158 154
151 186 173 198 255 284 345 158 205 225 253 209 253 279 312 353 247 254 204 151 168 210 229 217 195 224 211 217 204 220 158 142 174 194 182 174 168 163 149 144 143 143 143 148 150 143 142 146 148 145 146 146 149 149
129 116 84 128 115 287 231 132 240 265 224 230 244 201 210 236 251 248 268 211 219 224 217 213 220 222 187 195 206 214 199 167 173 175 181 184 174 162 150 150 147 149 147 146 140 144 145 141 140 139 141 146 144 141